Time,TemperatureF,DewpointF,PressureIn,WindDirection,WindDirectionDegrees,WindSpeedMPH,WindSpeedGustMPH,Humidity,HourlyPrecipIn,Conditions,Clouds,dailyrainin,SolarRadiationWatts/m^2,SoftwareType,DateUTC
2013-04-05 00:00:00,41.8,34.1,30.18,NNE,17,5.0,7.0,74,0.00,,CLR,0.00,0.00,VWS V14.01,2013-04-05 05:00:00,
2013-04-05 00:05:00,41.7,34.0,30.18,NNE,21,4.0,7.0,74,0.00,,CLR,0.00,0.00,VWS V14.01,2013-04-05 05:05:00,
2013-04-05 00:10:00,41.6,34.3,30.18,NNW,342,3.0,4.0,75,0.00,,CLR,0.00,0.00,VWS V14.01,2013-04-05 05:10:00,
2013-04-05 00:16:00,41.6,34.3,30.18,NNE,24,5.0,5.0,75,0.00,,CLR,0.00,0.00,VWS V14.01,2013-04-05 05:16:00,
2013-04-05 00:20:00,41.5,34.2,30.18,NNW,331,1.0,4.0,75,0.00,,CLR,0.00,0.00,VWS V14.01,2013-04-05 05:20:00,
2013-04-05 00:25:00,41.4,34.1,30.18,North,360,2.0,5.0,75,0.00,,CLR,0.00,0.00,VWS V14.01,2013-04-05 05:25:00,
2013-04-05 00:31:00,41.3,34.0,30.18,North,5,3.0,5.0,75,0.00,,CLR,0.00,0.00,VWS V14.01,2013-04-05 05:31:00,
2013-04-05 00:36:00,41.1,33.8,30.19,North,360,2.0,4.0,75,0.00,,CLR,0.00,0.00,VWS V14.01,2013-04-05 05:36:00,
2013-04-05 00:41:00,41.0,33.7,30.19,North,356,2.0,3.0,75,0.00,,CLR,0.00,0.00,VWS V14.01,2013-04-05 05:41:00,
2013-04-05 00:46:00,40.7,33.4,30.19,North,360,2.0,3.0,75,0.00,,CLR,0.00,0.00,VWS V14.01,2013-04-05 05:46:00,
2013-04-05 00:51:00,40.5,33.5,30.19,North,360,1.0,4.0,76,0.00,,CLR,0.00,0.00,VWS V14.01,2013-04-05 05:51:00,
2013-04-05 00:56:00,40.4,33.5,30.19,North,353,2.0,6.0,76,0.00,,CLR,0.00,0.00,VWS V14.01,2013-04-05 05:56:00,
2013-04-05 01:01:00,40.2,33.2,30.19,NNE,16,4.0,5.0,76,0.00,,CLR,0.00,0.00,VWS V14.01,2013-04-05 06:01:00,
2013-04-05 01:06:00,40.1,33.5,30.20,NNE,14,4.0,6.0,77,0.00,,CLR,0.00,0.00,VWS V14.01,2013-04-05 06:06:00,
2013-04-05 01:11:00,40.0,33.4,30.20,North,352,1.0,6.0,77,0.00,,CLR,0.00,0.00,VWS V14.01,2013-04-05 06:11:00,
2013-04-05 01:16:00,39.9,33.3,30.20,NNE,24,3.0,7.0,77,0.00,,CLR,0.00,0.00,VWS V14.01,2013-04-05 06:16:00,
2013-04-05 01:21:00,39.7,33.1,30.20,NE,40,6.0,6.0,77,0.00,,CLR,0.00,0.00,VWS V14.01,2013-04-05 06:21:00,
2013-04-05 01:26:00,39.6,33.0,30.20,North,5,4.0,8.0,77,0.00,,CLR,0.00,0.00,VWS V14.01,2013-04-05 06:26:00,
2013-04-05 01:31:00,39.5,32.9,30.19,North,355,5.0,5.0,77,0.00,,CLR,0.00,0.00,VWS V14.01,2013-04-05 06:31:00,
2013-04-05 01:36:00,39.5,32.9,30.19,NE,49,2.0,7.0,77,0.00,,CLR,0.00,0.00,VWS V14.01,2013-04-05 06:36:00,
2013-04-05 01:41:00,39.4,32.8,30.20,NNE,14,5.0,7.0,77,0.00,,CLR,0.00,0.00,VWS V14.01,2013-04-05 06:41:00,
2013-04-05 01:46:00,39.3,32.4,30.20,North,10,5.0,7.0,76,0.00,,CLR,0.00,0.00,VWS V14.01,2013-04-05 06:46:00,
2013-04-05 01:51:00,39.3,32.4,30.20,NE,43,5.0,5.0,76,0.00,,CLR,0.00,0.00,VWS V14.01,2013-04-05 06:51:00,
2013-04-05 01:56:00,39.2,32.3,30.21,NE,37,5.0,7.0,76,0.00,,CLR,0.00,0.00,VWS V14.01,2013-04-05 06:56:00,
2013-04-05 02:02:00,39.1,32.2,30.20,NNE,21,3.0,10.0,76,0.00,,CLR,0.00,0.00,VWS V14.01,2013-04-05 07:02:00,
2013-04-05 02:06:00,39.0,32.1,30.20,North,5,4.0,9.0,76,0.00,,CLR,0.00,0.00,VWS V14.01,2013-04-05 07:06:00,
2013-04-05 02:12:00,39.1,32.2,30.21,NNE,16,2.0,4.0,76,0.00,,CLR,0.00,0.00,VWS V14.01,2013-04-05 07:12:00,
2013-04-05 02:17:00,39.1,32.2,30.21,NNE,25,4.0,6.0,76,0.00,,CLR,0.00,0.00,VWS V14.01,2013-04-05 07:17:00,
2013-04-05 02:22:00,39.0,32.1,30.21,NNE,31,6.0,9.0,76,0.00,,CLR,0.00,0.00,VWS V14.01,2013-04-05 07:22:00,
2013-04-05 02:27:00,39.0,32.1,30.20,NNW,345,3.0,5.0,76,0.00,,CLR,0.00,0.00,VWS V14.01,2013-04-05 07:27:00,
2013-04-05 02:32:00,38.9,32.0,30.21,North,352,3.0,9.0,76,0.00,,CLR,0.00,0.00,VWS V14.01,2013-04-05 07:32:00,
2013-04-05 02:37:00,38.9,32.0,30.21,North,354,1.0,5.0,76,0.00,,CLR,0.00,0.00,VWS V14.01,2013-04-05 07:37:00,
2013-04-05 02:42:00,38.9,32.0,30.21,North,360,3.0,4.0,76,0.00,,CLR,0.00,0.00,VWS V14.01,2013-04-05 07:42:00,
2013-04-05 02:47:00,38.8,31.9,30.21,NNE,24,3.0,4.0,76,0.00,,CLR,0.00,0.00,VWS V14.01,2013-04-05 07:47:00,
2013-04-05 02:52:00,38.7,31.8,30.22,North,354,4.0,5.0,76,0.00,,CLR,0.00,0.00,VWS V14.01,2013-04-05 07:52:00,
2013-04-05 02:57:00,38.7,31.8,30.21,NNE,16,2.0,4.0,76,0.00,,CLR,0.00,0.00,VWS V14.01,2013-04-05 07:57:00,
2013-04-05 03:02:00,38.6,31.7,30.22,NNE,14,3.0,6.0,76,0.00,,CLR,0.00,0.00,VWS V14.01,2013-04-05 08:02:00,
2013-04-05 03:07:00,38.6,31.7,30.22,NNE,21,4.0,7.0,76,0.00,,CLR,0.00,0.00,VWS V14.01,2013-04-05 08:07:00,
2013-04-05 03:12:00,38.5,31.6,30.21,North,5,2.0,7.0,76,0.00,,CLR,0.00,0.00,VWS V14.01,2013-04-05 08:12:00,
2013-04-05 03:17:00,38.5,31.6,30.22,NNE,14,4.0,6.0,76,0.00,,CLR,0.00,0.00,VWS V14.01,2013-04-05 08:17:00,
2013-04-05 03:22:00,38.5,31.6,30.22,North,10,4.0,7.0,76,0.00,,CLR,0.00,0.00,VWS V14.01,2013-04-05 08:22:00,
2013-04-05 03:27:00,38.4,31.5,30.22,NNE,20,5.0,5.0,76,0.00,,CLR,0.00,0.00,VWS V14.01,2013-04-05 08:27:00,
2013-04-05 03:32:00,38.4,31.5,30.22,NNE,16,5.0,9.0,76,0.00,,CLR,0.00,0.00,VWS V14.01,2013-04-05 08:32:00,
2013-04-05 03:37:00,38.4,31.5,30.22,North,360,5.0,5.0,76,0.00,,CLR,0.00,0.00,VWS V14.01,2013-04-05 08:37:00,
2013-04-05 03:42:00,38.3,31.4,30.22,North,360,3.0,6.0,76,0.00,,CLR,0.00,0.00,VWS V14.01,2013-04-05 08:42:00,
2013-04-05 03:47:00,38.2,31.0,30.21,NNE,17,6.0,6.0,75,0.00,,CLR,0.00,0.00,VWS V14.01,2013-04-05 08:47:00,
2013-04-05 03:52:00,38.1,30.9,30.22,North,10,6.0,9.0,75,0.00,,CLR,0.00,0.00,VWS V14.01,2013-04-05 08:52:00,
2013-04-05 03:57:00,37.9,30.7,30.21,North,5,7.0,9.0,75,0.00,,CLR,0.00,0.00,VWS V14.01,2013-04-05 08:57:00,
2013-04-05 04:02:00,37.8,30.6,30.21,NNE,14,5.0,8.0,75,0.00,,CLR,0.00,0.00,VWS V14.01,2013-04-05 09:02:00,
2013-04-05 04:07:00,37.7,30.5,30.22,North,349,2.0,5.0,75,0.00,,CLR,0.00,0.00,VWS V14.01,2013-04-05 09:07:00,
2013-04-05 04:12:00,37.5,30.3,30.23,North,5,1.0,4.0,75,0.00,,CLR,0.00,0.00,VWS V14.01,2013-04-05 09:12:00,
2013-04-05 04:17:00,37.3,30.1,30.23,NNE,27,1.0,4.0,75,0.00,,CLR,0.00,0.00,VWS V14.01,2013-04-05 09:17:00,
2013-04-05 04:22:00,37.0,30.1,30.23,NNE,17,2.0,5.0,76,0.00,,CLR,0.00,0.00,VWS V14.01,2013-04-05 09:22:00,
2013-04-05 04:28:00,36.8,30.0,30.22,NNE,17,5.0,5.0,76,0.00,,CLR,0.00,0.00,VWS V14.01,2013-04-05 09:28:00,
2013-04-05 04:33:00,36.5,29.7,30.23,North,10,3.0,4.0,76,0.00,,CLR,0.00,0.00,VWS V14.01,2013-04-05 09:33:00,
2013-04-05 04:38:00,36.3,29.5,30.23,NNW,347,5.0,5.0,76,0.00,,CLR,0.00,0.00,VWS V14.01,2013-04-05 09:38:00,
2013-04-05 04:43:00,36.0,29.5,30.23,North,349,3.0,6.0,77,0.00,,CLR,0.00,0.00,VWS V14.01,2013-04-05 09:43:00,
2013-04-05 04:48:00,35.7,29.2,30.23,North,349,2.0,5.0,77,0.00,,CLR,0.00,0.00,VWS V14.01,2013-04-05 09:48:00,
2013-04-05 04:53:00,35.5,29.0,30.23,North,356,3.0,4.0,77,0.00,,CLR,0.00,0.00,VWS V14.01,2013-04-05 09:53:00,
2013-04-05 04:58:00,35.2,29.0,30.23,North,351,4.0,6.0,78,0.00,,CLR,0.00,0.00,VWS V14.01,2013-04-05 09:58:00,
2013-04-05 05:03:00,34.8,28.6,30.23,NNE,14,2.0,6.0,78,0.00,,CLR,0.00,0.00,VWS V14.01,2013-04-05 10:03:00,
2013-04-05 05:08:00,34.5,28.4,30.23,North,10,3.0,6.0,78,0.00,,CLR,0.00,0.00,VWS V14.01,2013-04-05 10:08:00,
2013-04-05 05:13:00,34.4,28.6,30.24,North,360,3.0,5.0,79,0.00,,CLR,0.00,0.00,VWS V14.01,2013-04-05 10:13:00,
2013-04-05 05:18:00,34.4,28.6,30.24,North,353,2.0,4.0,79,0.00,,CLR,0.00,0.00,VWS V14.01,2013-04-05 10:18:00,
2013-04-05 05:23:00,34.2,28.7,30.24,North,355,3.0,7.0,80,0.00,,CLR,0.00,0.00,VWS V14.01,2013-04-05 10:23:00,
2013-04-05 05:28:00,34.1,28.6,30.24,NNE,14,2.0,4.0,80,0.00,,CLR,0.00,0.00,VWS V14.01,2013-04-05 10:28:00,
2013-04-05 05:33:00,34.0,28.5,30.24,NNE,14,3.0,5.0,80,0.00,,CLR,0.00,0.00,VWS V14.01,2013-04-05 10:33:00,
2013-04-05 05:38:00,33.9,28.4,30.24,NNE,18,3.0,4.0,80,0.00,,CLR,0.00,0.00,VWS V14.01,2013-04-05 10:38:00,
2013-04-05 05:43:00,33.8,28.3,30.24,North,5,1.0,4.0,80,0.00,,CLR,0.00,0.00,VWS V14.01,2013-04-05 10:43:00,
2013-04-05 05:48:00,33.7,28.2,30.24,North,10,1.0,2.0,80,0.00,,CLR,0.00,0.00,VWS V14.01,2013-04-05 10:48:00,
2013-04-05 05:53:00,33.6,28.1,30.25,North,355,1.0,3.0,80,0.00,,CLR,0.00,0.00,VWS V14.01,2013-04-05 10:53:00,
2013-04-05 05:58:00,33.5,28.0,30.25,North,351,2.0,3.0,80,0.00,,CLR,0.00,0.00,VWS V14.01,2013-04-05 10:58:00,
2013-04-05 06:04:00,33.3,27.8,30.25,North,10,2.0,4.0,80,0.00,,CLR,0.00,0.00,VWS V14.01,2013-04-05 11:04:00,
2013-04-05 06:09:00,33.2,27.7,30.25,North,10,3.0,6.0,80,0.00,,CLR,0.00,0.00,VWS V14.01,2013-04-05 11:09:00,
2013-04-05 06:14:00,33.0,27.8,30.25,North,360,2.0,5.0,81,0.00,,CLR,0.00,0.00,VWS V14.01,2013-04-05 11:14:00,
2013-04-05 06:19:00,32.9,27.7,30.25,NNE,24,6.0,6.0,81,0.00,,CLR,0.00,0.00,VWS V14.01,2013-04-05 11:19:00,
2013-04-05 06:24:00,32.9,27.7,30.25,NNE,31,2.0,6.0,81,0.00,,CLR,0.00,0.00,VWS V14.01,2013-04-05 11:24:00,
2013-04-05 06:29:00,32.9,28.0,30.25,NNE,18,4.0,5.0,82,0.00,,CLR,0.00,0.00,VWS V14.01,2013-04-05 11:29:00,
2013-04-05 06:34:00,32.8,27.6,30.24,NNE,22,2.0,5.0,81,0.00,,CLR,0.00,0.00,VWS V14.01,2013-04-05 11:34:00,
2013-04-05 06:39:00,32.8,27.9,30.25,NNE,26,3.0,6.0,82,0.00,,CLR,0.00,0.00,VWS V14.01,2013-04-05 11:39:00,
2013-04-05 06:44:00,32.7,27.8,30.25,North,355,2.0,3.0,82,0.00,,CLR,0.00,0.00,VWS V14.01,2013-04-05 11:44:00,
2013-04-05 06:49:00,32.6,27.7,30.26,North,360,0.0,2.0,82,0.00,,CLR,0.00,5.00,VWS V14.01,2013-04-05 11:49:00,
2013-04-05 06:54:00,32.5,27.6,30.26,North,360,1.0,2.0,82,0.00,,CLR,0.00,7.00,VWS V14.01,2013-04-05 11:54:00,
2013-04-05 06:59:00,32.4,27.5,30.26,North,360,1.0,2.0,82,0.00,,CLR,0.00,11.00,VWS V14.01,2013-04-05 11:59:00,
2013-04-05 07:04:00,32.3,27.4,30.26,NNE,17,0.0,0.0,82,0.00,,CLR,0.00,16.00,VWS V14.01,2013-04-05 12:04:00,
2013-04-05 07:09:00,32.2,27.3,30.26,NNE,16,0.0,2.0,82,0.00,,CLR,0.00,21.00,VWS V14.01,2013-04-05 12:09:00,
2013-04-05 07:14:00,32.1,27.2,30.26,NNE,16,1.0,3.0,82,0.00,,CLR,0.00,28.00,VWS V14.01,2013-04-05 12:14:00,
2013-04-05 07:20:00,32.0,27.1,30.26,NNE,20,4.0,4.0,82,0.00,,CLR,0.00,32.00,VWS V14.01,2013-04-05 12:20:00,
2013-04-05 07:25:00,32.1,27.2,30.26,NNE,25,6.0,6.0,82,0.00,,CLR,0.00,39.00,VWS V14.01,2013-04-05 12:25:00,
2013-04-05 07:30:00,32.2,27.6,30.26,NNE,27,5.0,6.0,83,0.00,,CLR,0.00,32.00,VWS V14.01,2013-04-05 12:30:00,
2013-04-05 07:35:00,32.6,28.0,30.25,NE,45,4.0,5.0,83,0.00,,CLR,0.00,47.00,VWS V14.01,2013-04-05 12:35:00,
2013-04-05 07:40:00,33.0,28.7,30.26,NE,35,4.0,7.0,84,0.00,,CLR,0.00,46.00,VWS V14.01,2013-04-05 12:40:00,
2013-04-05 07:45:00,33.4,29.1,30.26,NE,39,7.0,10.0,84,0.00,,CLR,0.00,44.00,VWS V14.01,2013-04-05 12:45:00,
2013-04-05 07:50:00,33.8,29.2,30.26,NE,44,6.0,7.0,83,0.00,,CLR,0.00,44.00,VWS V14.01,2013-04-05 12:50:00,
2013-04-05 07:55:00,34.1,29.5,30.27,ENE,65,5.0,10.0,83,0.00,,CLR,0.00,88.00,VWS V14.01,2013-04-05 12:55:00,
2013-04-05 08:00:00,34.4,29.8,30.27,NE,41,5.0,10.0,83,0.00,,CLR,0.00,62.00,VWS V14.01,2013-04-05 13:00:00,
2013-04-05 08:05:00,34.4,29.5,30.27,ENE,70,5.0,6.0,82,0.00,,CLR,0.00,63.00,VWS V14.01,2013-04-05 13:05:00,
2013-04-05 08:10:00,34.6,29.7,30.26,NNW,346,1.0,7.0,82,0.00,,CLR,0.00,121.00,VWS V14.01,2013-04-05 13:10:00,
2013-04-05 08:15:00,34.9,30.0,30.26,ENE,62,3.0,6.0,82,0.00,,CLR,0.00,141.00,VWS V14.01,2013-04-05 13:15:00,
2013-04-05 08:20:00,35.2,30.0,30.26,North,10,6.0,9.0,81,0.00,,CLR,0.00,123.00,VWS V14.01,2013-04-05 13:20:00,
2013-04-05 08:25:00,35.6,30.0,30.26,NNE,25,3.0,6.0,80,0.00,,CLR,0.00,111.00,VWS V14.01,2013-04-05 13:25:00,
2013-04-05 08:30:00,36.1,30.2,30.26,East,83,7.0,9.0,79,0.00,,CLR,0.00,192.00,VWS V14.01,2013-04-05 13:30:00,
2013-04-05 08:35:00,36.6,30.4,30.26,ENE,71,8.0,12.0,78,0.00,,CLR,0.00,279.00,VWS V14.01,2013-04-05 13:35:00,
2013-04-05 08:40:00,37.5,31.0,30.26,ENE,65,6.0,9.0,77,0.00,,CLR,0.00,260.00,VWS V14.01,2013-04-05 13:40:00,
2013-04-05 08:45:00,37.9,30.7,30.26,NE,56,6.0,10.0,75,0.00,,CLR,0.00,163.00,VWS V14.01,2013-04-05 13:45:00,
2013-04-05 08:50:00,38.6,31.0,30.26,SE,145,3.0,12.0,74,0.00,,CLR,0.00,315.00,VWS V14.01,2013-04-05 13:50:00,
2013-04-05 08:55:00,38.6,30.7,30.27,ENE,57,9.0,10.0,73,0.00,,CLR,0.00,320.00,VWS V14.01,2013-04-05 13:55:00,
2013-04-05 09:00:00,39.1,31.2,30.27,ENE,63,9.0,12.0,73,0.00,,CLR,0.00,367.00,VWS V14.01,2013-04-05 14:00:00,
2013-04-05 09:05:00,39.7,31.4,30.27,ENE,62,5.0,10.0,72,0.00,,CLR,0.00,334.00,VWS V14.01,2013-04-05 14:05:00,
2013-04-05 09:10:00,40.4,31.4,30.26,East,101,10.0,10.0,70,0.00,,CLR,0.00,334.00,VWS V14.01,2013-04-05 14:10:00,
2013-04-05 09:15:00,40.8,31.4,30.26,ENE,77,9.0,12.0,69,0.00,,CLR,0.00,387.00,VWS V14.01,2013-04-05 14:15:00,
2013-04-05 09:20:00,41.1,31.7,30.25,East,91,9.0,13.0,69,0.00,,CLR,0.00,397.00,VWS V14.01,2013-04-05 14:20:00,
2013-04-05 09:25:00,41.7,31.9,30.25,East,88,10.0,12.0,68,0.00,,CLR,0.00,408.00,VWS V14.01,2013-04-05 14:25:00,
2013-04-05 09:30:00,42.3,31.4,30.25,ENE,78,6.0,13.0,65,0.00,,CLR,0.00,418.00,VWS V14.01,2013-04-05 14:30:00,
2013-04-05 09:35:00,42.9,31.6,30.26,East,98,11.0,11.0,64,0.00,,CLR,0.00,413.00,VWS V14.01,2013-04-05 14:35:00,
2013-04-05 09:41:00,43.3,32.0,30.26,ESE,112,3.0,12.0,64,0.00,,CLR,0.00,464.00,VWS V14.01,2013-04-05 14:41:00,
2013-04-05 09:46:00,44.0,31.4,30.26,East,93,7.0,10.0,61,0.00,,CLR,0.00,533.00,VWS V14.01,2013-04-05 14:46:00,
2013-04-05 09:51:00,44.3,30.9,30.26,ESE,114,5.0,10.0,59,0.00,,CLR,0.00,285.00,VWS V14.01,2013-04-05 14:51:00,
2013-04-05 09:56:00,44.2,31.2,30.26,SE,128,4.0,7.0,60,0.00,,CLR,0.00,376.00,VWS V14.01,2013-04-05 14:56:00,
2013-04-05 10:01:00,44.8,32.2,30.26,ESE,106,4.0,7.0,61,0.00,,CLR,0.00,452.00,VWS V14.01,2013-04-05 15:01:00,
2013-04-05 10:07:00,45.0,32.0,30.25,East,101,7.0,7.0,60,0.00,,CLR,0.00,373.00,VWS V14.01,2013-04-05 15:07:00,
2013-04-05 10:12:00,45.4,32.3,30.25,ESE,121,7.0,8.0,60,0.00,,CLR,0.00,376.00,VWS V14.01,2013-04-05 15:12:00,
2013-04-05 10:17:00,46.0,32.1,30.25,ESE,110,6.0,6.0,58,0.00,,CLR,0.00,436.00,VWS V14.01,2013-04-05 15:17:00,
2013-04-05 10:22:00,45.9,31.5,30.25,SE,146,6.0,9.0,57,0.00,,CLR,0.00,381.00,VWS V14.01,2013-04-05 15:22:00,
2013-04-05 10:27:00,46.3,31.5,30.25,SE,127,6.0,13.0,56,0.00,,CLR,0.00,371.00,VWS V14.01,2013-04-05 15:27:00,
2013-04-05 10:32:00,47.1,31.8,30.25,South,191,8.0,8.0,55,0.00,,CLR,0.00,469.00,VWS V14.01,2013-04-05 15:32:00,
2013-04-05 10:37:00,47.5,33.0,30.25,South,191,10.0,12.0,57,0.00,,CLR,0.00,348.00,VWS V14.01,2013-04-05 15:37:00,
2013-04-05 10:42:00,46.5,32.1,30.24,SSW,207,11.0,12.0,57,0.00,,CLR,0.00,302.00,VWS V14.01,2013-04-05 15:42:00,
2013-04-05 10:47:00,47.9,33.8,30.24,SE,135,6.0,11.0,58,0.00,,CLR,0.00,691.00,VWS V14.01,2013-04-05 15:47:00,
2013-04-05 10:52:00,49.3,34.3,30.24,SSW,195,5.0,9.0,56,0.00,,CLR,0.00,619.00,VWS V14.01,2013-04-05 15:52:00,
2013-04-05 10:57:00,49.1,32.7,30.24,SSW,203,11.0,15.0,53,0.00,,CLR,0.00,756.00,VWS V14.01,2013-04-05 15:57:00,
2013-04-05 11:02:00,49.2,33.3,30.25,SSW,208,12.0,14.0,54,0.00,,CLR,0.00,788.00,VWS V14.01,2013-04-05 16:02:00,
2013-04-05 11:07:00,48.9,32.5,30.24,SW,219,11.0,13.0,53,0.00,,CLR,0.00,731.00,VWS V14.01,2013-04-05 16:07:00,
2013-04-05 11:13:00,49.7,32.8,30.24,South,186,13.0,15.0,52,0.00,,CLR,0.00,705.00,VWS V14.01,2013-04-05 16:13:00,
2013-04-05 11:18:00,49.2,32.8,30.24,SSW,205,15.0,16.0,53,0.00,,CLR,0.00,749.00,VWS V14.01,2013-04-05 16:18:00,
2013-04-05 11:23:00,49.8,32.4,30.24,SSW,203,9.0,17.0,51,0.00,,CLR,0.00,691.00,VWS V14.01,2013-04-05 16:23:00,
2013-04-05 11:28:00,50.5,32.6,30.24,SW,216,13.0,16.0,50,0.00,,CLR,0.00,740.00,VWS V14.01,2013-04-05 16:28:00,
2013-04-05 11:33:00,50.7,32.2,30.24,SSW,203,12.0,13.0,49,0.00,,CLR,0.00,691.00,VWS V14.01,2013-04-05 16:33:00,
2013-04-05 11:38:00,50.4,32.0,30.24,South,190,12.0,14.0,49,0.00,,CLR,0.00,701.00,VWS V14.01,2013-04-05 16:38:00,
2013-04-05 11:43:00,51.0,32.5,30.24,SSW,209,12.0,13.0,49,0.00,,CLR,0.00,691.00,VWS V14.01,2013-04-05 16:43:00,
2013-04-05 11:48:00,51.2,32.2,30.24,SW,218,9.0,12.0,48,0.00,,CLR,0.00,624.00,VWS V14.01,2013-04-05 16:48:00,
2013-04-05 11:53:00,51.8,32.8,30.24,SSW,201,12.0,13.0,48,0.00,,CLR,0.00,668.00,VWS V14.01,2013-04-05 16:53:00,
2013-04-05 11:58:00,52.8,32.6,30.24,SSW,212,11.0,13.0,46,0.00,,CLR,0.00,708.00,VWS V14.01,2013-04-05 16:58:00,
2013-04-05 12:03:00,52.6,31.9,30.24,SSW,194,8.0,13.0,45,0.00,,CLR,0.00,707.00,VWS V14.01,2013-04-05 17:03:00,
2013-04-05 12:08:00,53.0,32.8,30.24,South,184,12.0,14.0,46,0.00,,CLR,0.00,719.00,VWS V14.01,2013-04-05 17:08:00,
2013-04-05 12:13:00,53.4,34.7,30.23,South,174,6.0,11.0,49,0.00,,CLR,0.00,740.00,VWS V14.01,2013-04-05 17:13:00,
2013-04-05 12:18:00,53.4,32.6,30.23,SSE,166,7.0,12.0,45,0.00,,CLR,0.00,763.00,VWS V14.01,2013-04-05 17:18:00,
2013-04-05 12:23:00,53.6,32.8,30.23,SSE,163,6.0,12.0,45,0.00,,CLR,0.00,788.00,VWS V14.01,2013-04-05 17:23:00,
2013-04-05 12:28:00,53.9,32.5,30.22,SE,145,7.0,12.0,44,0.00,,CLR,0.00,777.00,VWS V14.01,2013-04-05 17:28:00,
2013-04-05 12:33:00,53.9,31.4,30.22,South,183,13.0,13.0,42,0.00,,CLR,0.00,800.00,VWS V14.01,2013-04-05 17:33:00,
2013-04-05 12:38:00,53.9,31.9,30.22,SSE,153,3.0,10.0,43,0.00,,CLR,0.00,803.00,VWS V14.01,2013-04-05 17:38:00,
2013-04-05 12:43:00,54.5,31.3,30.22,SSE,155,6.0,13.0,41,0.00,,CLR,0.00,791.00,VWS V14.01,2013-04-05 17:43:00,
2013-04-05 12:48:00,54.7,32.1,30.21,SSE,152,4.0,7.0,42,0.00,,CLR,0.00,786.00,VWS V14.01,2013-04-05 17:48:00,
2013-04-05 12:53:00,55.5,32.8,30.21,South,185,4.0,11.0,42,0.00,,CLR,0.00,622.00,VWS V14.01,2013-04-05 17:53:00,
2013-04-05 12:58:00,56.4,31.8,30.21,SE,135,5.0,13.0,39,0.00,,CLR,0.00,810.00,VWS V14.01,2013-04-05 17:58:00,
2013-04-05 13:03:00,55.2,31.3,30.20,South,169,12.0,13.0,40,0.00,,CLR,0.00,468.00,VWS V14.01,2013-04-05 18:03:00,
2013-04-05 13:08:00,54.7,30.2,30.20,SSE,164,10.0,13.0,39,0.00,,CLR,0.00,461.00,VWS V14.01,2013-04-05 18:08:00,
2013-04-05 13:14:00,54.6,31.4,30.20,SSE,168,9.0,9.0,41,0.00,,CLR,0.00,482.00,VWS V14.01,2013-04-05 18:14:00,
2013-04-05 13:19:00,54.8,30.3,30.20,East,94,6.0,15.0,39,0.00,,CLR,0.00,482.00,VWS V14.01,2013-04-05 18:19:00,
2013-04-05 13:24:00,55.2,31.3,30.20,South,184,9.0,12.0,40,0.00,,CLR,0.00,780.00,VWS V14.01,2013-04-05 18:24:00,
2013-04-05 13:29:00,55.0,29.9,30.19,SE,144,4.0,9.0,38,0.00,,CLR,0.00,413.00,VWS V14.01,2013-04-05 18:29:00,
2013-04-05 13:34:00,55.2,31.3,30.19,South,182,6.0,9.0,40,0.00,,CLR,0.00,408.00,VWS V14.01,2013-04-05 18:34:00,
2013-04-05 13:39:00,55.6,30.4,30.18,SSE,158,2.0,6.0,38,0.00,,CLR,0.00,497.00,VWS V14.01,2013-04-05 18:39:00,
2013-04-05 13:44:00,55.9,31.3,30.18,SE,131,3.0,7.0,39,0.00,,CLR,0.00,357.00,VWS V14.01,2013-04-05 18:44:00,
2013-04-05 13:49:00,55.2,30.7,30.17,SE,141,6.0,9.0,39,0.00,,CLR,0.00,311.00,VWS V14.01,2013-04-05 18:49:00,
2013-04-05 13:54:00,55.2,31.3,30.17,SSE,155,4.0,9.0,40,0.00,,CLR,0.00,348.00,VWS V14.01,2013-04-05 18:54:00,
2013-04-05 13:59:00,55.2,31.3,30.17,SSE,168,5.0,8.0,40,0.00,,CLR,0.00,436.00,VWS V14.01,2013-04-05 18:59:00,
2013-04-05 14:04:00,55.8,31.2,30.17,SSE,165,8.0,11.0,39,0.00,,CLR,0.00,441.00,VWS V14.01,2013-04-05 19:04:00,
2013-04-05 14:09:00,56.1,31.5,30.17,South,172,7.0,11.0,39,0.00,,CLR,0.00,418.00,VWS V14.01,2013-04-05 19:09:00,
2013-04-05 14:14:00,56.8,32.8,30.16,ESE,107,3.0,9.0,40,0.00,,CLR,0.00,684.00,VWS V14.01,2013-04-05 19:14:00,
2013-04-05 14:19:00,57.4,32.0,30.16,SSE,163,5.0,6.0,38,0.00,,CLR,0.00,454.00,VWS V14.01,2013-04-05 19:19:00,
2013-04-05 14:24:00,57.1,31.1,30.16,SSE,158,6.0,12.0,37,0.00,,CLR,0.00,524.00,VWS V14.01,2013-04-05 19:24:00,
2013-04-05 14:29:00,57.7,31.0,30.16,SSE,155,6.0,13.0,36,0.00,,CLR,0.00,584.00,VWS V14.01,2013-04-05 19:29:00,
2013-04-05 14:35:00,57.6,30.9,30.16,South,179,5.0,9.0,36,0.00,,CLR,0.00,436.00,VWS V14.01,2013-04-05 19:35:00,
2013-04-05 14:40:00,58.1,31.3,30.16,SE,143,5.0,10.0,36,0.00,,CLR,0.00,445.00,VWS V14.01,2013-04-05 19:40:00,
2013-04-05 14:45:00,57.3,31.9,30.15,South,186,10.0,11.0,38,0.00,,CLR,0.00,522.00,VWS V14.01,2013-04-05 19:45:00,
2013-04-05 14:50:00,57.4,31.4,30.15,SE,124,4.0,6.0,37,0.00,,CLR,0.00,418.00,VWS V14.01,2013-04-05 19:50:00,
2013-04-05 14:55:00,57.9,31.1,30.14,SSE,150,5.0,12.0,36,0.00,,CLR,0.00,631.00,VWS V14.01,2013-04-05 19:55:00,
2013-04-05 15:00:00,58.1,30.6,30.14,SE,128,5.0,10.0,35,0.00,,CLR,0.00,355.00,VWS V14.01,2013-04-05 20:00:00,
2013-04-05 15:05:00,57.9,31.1,30.13,SSE,153,6.0,13.0,36,0.00,,CLR,0.00,315.00,VWS V14.01,2013-04-05 20:05:00,
2013-04-05 15:10:00,57.5,30.8,30.13,SSE,151,5.0,5.0,36,0.00,,CLR,0.00,366.00,VWS V14.01,2013-04-05 20:10:00,
2013-04-05 15:15:00,57.5,30.8,30.13,ESE,114,5.0,11.0,36,0.00,,CLR,0.00,383.00,VWS V14.01,2013-04-05 20:15:00,
2013-04-05 15:20:00,58.0,32.6,30.12,SSE,162,6.0,13.0,38,0.00,,CLR,0.00,330.00,VWS V14.01,2013-04-05 20:20:00,
2013-04-05 15:25:00,58.2,31.4,30.12,ESE,121,4.0,12.0,36,0.00,,CLR,0.00,336.00,VWS V14.01,2013-04-05 20:25:00,
2013-04-05 15:30:00,58.2,32.1,30.12,SE,126,7.0,11.0,37,0.00,,CLR,0.00,408.00,VWS V14.01,2013-04-05 20:30:00,
2013-04-05 15:35:00,59.0,32.1,30.11,SSE,157,6.0,11.0,36,0.00,,CLR,0.00,406.00,VWS V14.01,2013-04-05 20:35:00,
2013-04-05 15:40:00,59.5,32.5,30.11,SE,130,5.0,9.0,36,0.00,,CLR,0.00,577.00,VWS V14.01,2013-04-05 20:40:00,
2013-04-05 15:45:00,60.5,32.7,30.11,South,174,3.0,8.0,35,0.00,,CLR,0.00,686.00,VWS V14.01,2013-04-05 20:45:00,
2013-04-05 15:50:00,60.1,33.1,30.11,SSE,162,5.0,11.0,36,0.00,,CLR,0.00,466.00,VWS V14.01,2013-04-05 20:50:00,
2013-04-05 15:56:00,59.8,33.5,30.10,SSE,152,5.0,11.0,37,0.00,,CLR,0.00,436.00,VWS V14.01,2013-04-05 20:56:00,
2013-04-05 16:01:00,59.1,32.2,30.09,SE,128,5.0,11.0,36,0.00,,CLR,0.00,322.00,VWS V14.01,2013-04-05 21:01:00,
2013-04-05 16:06:00,58.9,32.7,30.09,SSE,149,6.0,7.0,37,0.00,,CLR,0.00,287.00,VWS V14.01,2013-04-05 21:06:00,
2013-04-05 16:11:00,59.0,32.8,30.10,SSE,153,10.0,10.0,37,0.00,,CLR,0.00,362.00,VWS V14.01,2013-04-05 21:11:00,
2013-04-05 16:16:00,59.0,32.1,30.09,SE,141,7.0,11.0,36,0.00,,CLR,0.00,369.00,VWS V14.01,2013-04-05 21:16:00,
2013-04-05 16:21:00,59.2,31.6,30.08,SE,128,6.0,9.0,35,0.00,,CLR,0.00,376.00,VWS V14.01,2013-04-05 21:21:00,
2013-04-05 16:26:00,60.3,32.6,30.08,SE,128,10.0,14.0,35,0.00,,CLR,0.00,591.00,VWS V14.01,2013-04-05 21:26:00,
2013-04-05 16:31:00,60.6,33.5,30.07,ESE,117,7.0,12.0,36,0.00,,CLR,0.00,554.00,VWS V14.01,2013-04-05 21:31:00,
2013-04-05 16:36:00,60.8,33.0,30.07,SE,131,10.0,14.0,35,0.00,,CLR,0.00,401.00,VWS V14.01,2013-04-05 21:36:00,
2013-04-05 16:41:00,59.9,32.2,30.08,SE,127,8.0,11.0,35,0.00,,CLR,0.00,213.00,VWS V14.01,2013-04-05 21:41:00,
2013-04-05 16:46:00,59.3,32.4,30.07,SSE,148,5.0,12.0,36,0.00,,CLR,0.00,246.00,VWS V14.01,2013-04-05 21:46:00,
2013-04-05 16:52:00,59.8,33.5,30.06,SSE,153,10.0,14.0,37,0.00,,CLR,0.00,325.00,VWS V14.01,2013-04-05 21:52:00,
2013-04-05 16:57:00,59.7,32.7,30.06,SSE,155,4.0,9.0,36,0.00,,CLR,0.00,262.00,VWS V14.01,2013-04-05 21:57:00,
2013-04-05 17:02:00,59.8,32.8,30.06,SSE,163,13.0,15.0,36,0.00,,CLR,0.00,304.00,VWS V14.01,2013-04-05 22:02:00,
2013-04-05 17:07:00,60.2,33.2,30.06,SSE,156,9.0,11.0,36,0.00,,CLR,0.00,387.00,VWS V14.01,2013-04-05 22:07:00,
2013-04-05 17:12:00,60.7,33.6,30.06,SSE,168,10.0,14.0,36,0.00,,CLR,0.00,318.00,VWS V14.01,2013-04-05 22:12:00,
2013-04-05 17:17:00,60.5,33.4,30.06,South,173,8.0,15.0,36,0.00,,CLR,0.00,323.00,VWS V14.01,2013-04-05 22:17:00,
2013-04-05 17:22:00,60.4,34.0,30.06,SSE,155,6.0,11.0,37,0.00,,CLR,0.00,262.00,VWS V14.01,2013-04-05 22:22:00,
2013-04-05 17:27:00,60.1,33.8,30.05,SSE,160,7.0,12.0,37,0.00,,CLR,0.00,250.00,VWS V14.01,2013-04-05 22:27:00,
2013-04-05 17:32:00,59.9,32.9,30.05,SSE,149,10.0,14.0,36,0.00,,CLR,0.00,236.00,VWS V14.01,2013-04-05 22:32:00,
2013-04-05 17:37:00,59.8,33.5,30.05,SSE,158,10.0,13.0,37,0.00,,CLR,0.00,204.00,VWS V14.01,2013-04-05 22:37:00,
2013-04-05 17:42:00,59.7,33.4,30.05,SE,139,9.0,11.0,37,0.00,,CLR,0.00,199.00,VWS V14.01,2013-04-05 22:42:00,
2013-04-05 17:47:00,59.7,33.4,30.05,SE,130,5.0,14.0,37,0.00,,CLR,0.00,200.00,VWS V14.01,2013-04-05 22:47:00,
2013-04-05 17:52:00,59.8,32.8,30.04,SE,135,9.0,11.0,36,0.00,,CLR,0.00,202.00,VWS V14.01,2013-04-05 22:52:00,
2013-04-05 17:57:00,59.9,33.6,30.04,SE,145,5.0,11.0,37,0.00,,CLR,0.00,174.00,VWS V14.01,2013-04-05 22:57:00,
2013-04-05 18:02:00,60.0,33.7,30.04,SE,143,6.0,12.0,37,0.00,,CLR,0.00,165.00,VWS V14.01,2013-04-05 23:02:00,
2013-04-05 18:07:00,59.8,34.2,30.03,ESE,122,5.0,12.0,38,0.00,,CLR,0.00,160.00,VWS V14.01,2013-04-05 23:07:00,
2013-04-05 18:12:00,59.8,33.5,30.03,SE,135,3.0,10.0,37,0.00,,CLR,0.00,144.00,VWS V14.01,2013-04-05 23:12:00,
2013-04-05 18:17:00,59.6,34.0,30.03,SE,127,9.0,12.0,38,0.00,,CLR,0.00,123.00,VWS V14.01,2013-04-05 23:17:00,
2013-04-05 18:22:00,59.5,33.9,30.02,SE,142,5.0,11.0,38,0.00,,CLR,0.00,105.00,VWS V14.01,2013-04-05 23:22:00,
2013-04-05 18:27:00,59.3,34.4,30.02,SE,137,8.0,11.0,39,0.00,,CLR,0.00,90.00,VWS V14.01,2013-04-05 23:27:00,
2013-04-05 18:32:00,59.0,33.5,30.02,SE,135,13.0,13.0,38,0.00,,CLR,0.00,77.00,VWS V14.01,2013-04-05 23:32:00,
2013-04-05 18:37:00,59.0,34.1,30.01,SE,137,6.0,10.0,39,0.00,,CLR,0.00,65.00,VWS V14.01,2013-04-05 23:37:00,
2013-04-05 18:42:00,59.0,34.1,30.01,SE,139,5.0,10.0,39,0.00,,CLR,0.00,51.00,VWS V14.01,2013-04-05 23:42:00,
2013-04-05 18:47:00,59.0,34.1,30.02,SE,126,7.0,9.0,39,0.00,,CLR,0.00,42.00,VWS V14.01,2013-04-05 23:47:00,
2013-04-05 18:52:00,58.8,34.5,30.02,SE,143,4.0,12.0,40,0.00,,CLR,0.00,46.00,VWS V14.01,2013-04-05 23:52:00,
2013-04-05 18:57:00,58.7,34.5,30.01,SE,133,6.0,13.0,40,0.00,,CLR,0.00,47.00,VWS V14.01,2013-04-05 23:57:00,
2013-04-05 19:02:00,58.5,34.3,30.01,SE,143,4.0,12.0,40,0.00,,CLR,0.00,42.00,VWS V14.01,2013-04-06 00:02:00,
2013-04-05 19:07:00,58.2,34.6,30.01,ESE,115,4.0,10.0,41,0.00,,CLR,0.00,37.00,VWS V14.01,2013-04-06 00:07:00,
2013-04-05 19:12:00,58.1,33.9,30.01,SE,128,3.0,10.0,40,0.00,,CLR,0.00,30.00,VWS V14.01,2013-04-06 00:12:00,
2013-04-05 19:17:00,57.9,34.4,30.01,ESE,110,7.0,10.0,41,0.00,,CLR,0.00,21.00,VWS V14.01,2013-04-06 00:17:00,
2013-04-05 19:22:00,57.8,34.3,30.00,SE,124,7.0,7.0,41,0.00,,CLR,0.00,14.00,VWS V14.01,2013-04-06 00:22:00,
2013-04-05 19:27:00,57.8,34.3,30.00,SE,128,4.0,10.0,41,0.00,,CLR,0.00,9.00,VWS V14.01,2013-04-06 00:27:00,
2013-04-05 19:32:00,57.7,34.2,30.00,SE,137,7.0,12.0,41,0.00,,CLR,0.00,5.00,VWS V14.01,2013-04-06 00:32:00,
2013-04-05 19:38:00,57.6,34.1,30.00,SE,124,6.0,9.0,41,0.00,,CLR,0.00,0.00,VWS V14.01,2013-04-06 00:38:00,
2013-04-05 19:43:00,57.4,33.9,30.00,SE,136,4.0,10.0,41,0.00,,CLR,0.00,0.00,VWS V14.01,2013-04-06 00:43:00,
2013-04-05 19:48:00,57.1,34.2,30.00,ESE,116,4.0,6.0,42,0.00,,CLR,0.00,0.00,VWS V14.01,2013-04-06 00:48:00,
2013-04-05 19:53:00,56.9,34.1,30.00,SE,145,6.0,8.0,42,0.00,,CLR,0.00,0.00,VWS V14.01,2013-04-06 00:53:00,
2013-04-05 19:58:00,56.8,34.6,30.00,South,172,4.0,11.0,43,0.00,,CLR,0.00,0.00,VWS V14.01,2013-04-06 00:58:00,
2013-04-05 20:03:00,56.8,34.6,29.99,ESE,122,9.0,9.0,43,0.00,,CLR,0.00,0.00,VWS V14.01,2013-04-06 01:03:00,
2013-04-05 20:08:00,56.8,34.6,29.99,SSE,162,8.0,12.0,43,0.00,,CLR,0.00,0.00,VWS V14.01,2013-04-06 01:08:00,
2013-04-05 20:13:00,56.6,34.4,29.99,ESE,112,6.0,10.0,43,0.00,,CLR,0.00,0.00,VWS V14.01,2013-04-06 01:13:00,
2013-04-05 20:18:00,56.5,34.9,29.99,ESE,109,3.0,7.0,44,0.00,,CLR,0.00,0.00,VWS V14.01,2013-04-06 01:18:00,
2013-04-05 20:23:00,56.3,34.7,29.98,ESE,121,3.0,11.0,44,0.00,,CLR,0.00,0.00,VWS V14.01,2013-04-06 01:23:00,
2013-04-05 20:28:00,56.2,34.6,29.98,SE,141,4.0,10.0,44,0.00,,CLR,0.00,0.00,VWS V14.01,2013-04-06 01:28:00,
2013-04-05 20:33:00,56.2,34.6,29.99,SE,141,6.0,10.0,44,0.00,,CLR,0.00,0.00,VWS V14.01,2013-04-06 01:33:00,
2013-04-05 20:38:00,56.0,35.0,29.99,SE,128,5.0,9.0,45,0.00,,CLR,0.00,0.00,VWS V14.01,2013-04-06 01:38:00,
2013-04-05 20:43:00,56.0,35.0,29.99,SE,136,4.0,11.0,45,0.00,,CLR,0.00,0.00,VWS V14.01,2013-04-06 01:43:00,
2013-04-05 20:48:00,56.1,35.1,29.99,SE,145,3.0,9.0,45,0.00,,CLR,0.00,0.00,VWS V14.01,2013-04-06 01:48:00,
2013-04-05 20:53:00,56.0,35.0,29.99,SE,126,3.0,9.0,45,0.00,,CLR,0.00,0.00,VWS V14.01,2013-04-06 01:53:00,
2013-04-05 20:58:00,55.9,34.9,29.99,ESE,122,4.0,9.0,45,0.00,,CLR,0.00,0.00,VWS V14.01,2013-04-06 01:58:00,
2013-04-05 21:03:00,55.8,34.8,29.99,ESE,119,3.0,11.0,45,0.00,,CLR,0.00,0.00,VWS V14.01,2013-04-06 02:03:00,
2013-04-05 21:08:00,55.8,34.8,29.99,SE,125,6.0,6.0,45,0.00,,CLR,0.00,0.00,VWS V14.01,2013-04-06 02:08:00,
2013-04-05 21:13:00,55.7,34.7,29.99,SE,126,3.0,7.0,45,0.00,,CLR,0.00,0.00,VWS V14.01,2013-04-06 02:13:00,
2013-04-05 21:18:00,55.6,35.2,29.99,SE,140,5.0,7.0,46,0.00,,CLR,0.00,0.00,VWS V14.01,2013-04-06 02:18:00,
2013-04-05 21:23:00,55.7,35.3,29.99,SE,135,1.0,14.0,46,0.00,,CLR,0.00,0.00,VWS V14.01,2013-04-06 02:23:00,
2013-04-05 21:28:00,55.6,35.2,29.99,SE,136,7.0,10.0,46,0.00,,CLR,0.00,0.00,VWS V14.01,2013-04-06 02:28:00,
2013-04-05 21:33:00,55.6,35.2,29.99,ESE,116,4.0,8.0,46,0.00,,CLR,0.00,0.00,VWS V14.01,2013-04-06 02:33:00,
2013-04-05 21:38:00,55.5,34.5,29.99,East,101,5.0,7.0,45,0.00,,CLR,0.00,0.00,VWS V14.01,2013-04-06 02:38:00,
2013-04-05 21:43:00,55.4,34.4,29.99,SE,124,4.0,9.0,45,0.00,,CLR,0.00,0.00,VWS V14.01,2013-04-06 02:43:00,
2013-04-05 21:48:00,55.2,34.8,29.99,ESE,118,5.0,7.0,46,0.00,,CLR,0.00,0.00,VWS V14.01,2013-04-06 02:48:00,
2013-04-05 21:53:00,54.9,34.5,29.98,ESE,112,6.0,6.0,46,0.00,,CLR,0.00,0.00,VWS V14.01,2013-04-06 02:53:00,
2013-04-05 21:59:00,54.8,34.4,29.98,ESE,114,6.0,11.0,46,0.00,,CLR,0.00,0.00,VWS V14.01,2013-04-06 02:59:00,
2013-04-05 22:04:00,54.9,34.5,29.98,SE,140,9.0,14.0,46,0.00,,CLR,0.00,0.00,VWS V14.01,2013-04-06 03:04:00,
2013-04-05 22:09:00,55.0,34.6,29.98,ESE,105,5.0,12.0,46,0.00,,CLR,0.00,0.00,VWS V14.01,2013-04-06 03:09:00,
2013-04-05 22:14:00,55.0,34.6,29.98,SE,137,7.0,9.0,46,0.00,,CLR,0.00,0.00,VWS V14.01,2013-04-06 03:14:00,
2013-04-05 22:19:00,55.0,34.6,29.98,SSE,153,4.0,13.0,46,0.00,,CLR,0.00,0.00,VWS V14.01,2013-04-06 03:19:00,
2013-04-05 22:24:00,55.0,34.6,29.98,SE,126,6.0,10.0,46,0.00,,CLR,0.00,0.00,VWS V14.01,2013-04-06 03:24:00,
2013-04-05 22:29:00,55.0,34.6,29.98,SE,131,9.0,12.0,46,0.00,,CLR,0.00,0.00,VWS V14.01,2013-04-06 03:29:00,
2013-04-05 22:34:00,55.1,34.7,29.97,SSE,158,8.0,15.0,46,0.00,,CLR,0.00,0.00,VWS V14.01,2013-04-06 03:34:00,
2013-04-05 22:39:00,55.0,34.6,29.97,SE,136,9.0,12.0,46,0.00,,CLR,0.00,0.00,VWS V14.01,2013-04-06 03:39:00,
2013-04-05 22:44:00,55.0,34.6,29.97,SSE,162,10.0,13.0,46,0.00,,CLR,0.00,0.00,VWS V14.01,2013-04-06 03:44:00,
2013-04-05 22:49:00,55.0,34.6,29.96,East,99,9.0,12.0,46,0.00,,CLR,0.00,0.00,VWS V14.01,2013-04-06 03:49:00,
2013-04-05 22:54:00,54.9,34.5,29.96,SSE,147,8.0,14.0,46,0.00,,CLR,0.00,0.00,VWS V14.01,2013-04-06 03:54:00,
2013-04-05 22:59:00,55.0,34.6,29.95,SSE,158,9.0,14.0,46,0.00,,CLR,0.00,0.00,VWS V14.01,2013-04-06 03:59:00,
2013-04-05 23:00:00,55.0,34.6,29.95,SE,140,5.0,12.0,46,0.00,,CLR,0.00,0.00,VWS V14.01,2013-04-06 04:00:00,
2013-04-05 23:05:00,54.9,34.5,29.95,SE,137,6.0,13.0,46,0.00,,CLR,0.00,0.00,VWS V14.01,2013-04-06 04:05:00,
2013-04-05 23:10:00,54.9,34.5,29.95,SE,127,9.0,14.0,46,0.00,,CLR,0.00,0.00,VWS V14.01,2013-04-06 04:10:00,
2013-04-05 23:15:00,54.8,35.0,29.95,SE,137,10.0,17.0,47,0.00,,CLR,0.00,0.00,VWS V14.01,2013-04-06 04:15:00,
2013-04-05 23:20:00,54.6,35.3,29.95,South,175,10.0,14.0,48,0.00,,CLR,0.00,0.00,VWS V14.01,2013-04-06 04:20:00,
2013-04-05 23:25:00,54.5,35.2,29.94,South,176,7.0,13.0,48,0.00,,CLR,0.00,0.00,VWS V14.01,2013-04-06 04:25:00,
2013-04-05 23:30:00,54.4,35.1,29.94,SE,144,8.0,13.0,48,0.00,,CLR,0.00,0.00,VWS V14.01,2013-04-06 04:30:00,
2013-04-05 23:35:00,54.4,35.1,29.94,SSE,168,7.0,10.0,48,0.00,,CLR,0.00,0.00,VWS V14.01,2013-04-06 04:35:00,
2013-04-05 23:40:00,54.3,35.6,29.94,South,172,3.0,14.0,49,0.00,,CLR,0.00,0.00,VWS V14.01,2013-04-06 04:40:00,
2013-04-05 23:45:00,54.2,35.5,29.94,SSE,164,10.0,15.0,49,0.00,,CLR,0.00,0.00,VWS V14.01,2013-04-06 04:45:00,
2013-04-05 23:50:00,54.1,35.9,29.94,SSE,153,12.0,12.0,50,0.00,,CLR,0.00,0.00,VWS V14.01,2013-04-06 04:50:00,
2013-04-05 23:55:00,54.0,35.8,29.94,South,176,12.0,12.0,50,0.00,,CLR,0.00,0.00,VWS V14.01,2013-04-06 04:55:00,